TimeEDT,TemperatureF,Dew PointF,Humidity,Sea Level PressureIn,VisibilityMPH,Wind Direction,Wind SpeedMPH,Gust SpeedMPH,PrecipitationIn,Events,Conditions,WindDirDegrees,DateUTC
12:01 AM,53.6,51.8,94,29.96,7.0,ESE,3.5,-,N/A,,Overcast,120,2013-05-28 04:01:00
12:35 AM,55.4,53.6,94,29.94,7.0,Calm,Calm,-,N/A,,Overcast,0,2013-05-28 04:35:00
12:53 AM,55.0,53.1,93,29.94,7.0,East,4.6,-,N/A,,Overcast,100,2013-05-28 04:53:00
1:53 AM,55.0,53.1,93,29.93,7.0,Variable,3.5,-,N/A,,Overcast,0,2013-05-28 05:53:00
2:53 AM,55.9,54.0,93,29.93,5.0,Calm,Calm,-,N/A,,Overcast,0,2013-05-28 06:53:00
3:11 AM,55.4,53.6,94,29.91,5.0,Calm,Calm,-,N/A,,Overcast,0,2013-05-28 07:11:00
3:36 AM,55.4,55.4,100,29.90,2.5,Calm,Calm,-,N/A,,Overcast,0,2013-05-28 07:36:00
3:50 AM,55.4,55.4,100,29.90,1.2,Variable,3.5,-,N/A,,Overcast,0,2013-05-28 07:50:00
3:53 AM,55.9,55.0,97,29.91,1.2,Calm,Calm,-,N/A,,Overcast,0,2013-05-28 07:53:00
4:25 AM,57.2,55.4,94,29.91,0.8,Calm,Calm,-,N/A,,Overcast,0,2013-05-28 08:25:00
4:43 AM,57.2,55.4,94,29.90,1.0,Calm,Calm,-,0.00,Rain,Light Rain,0,2013-05-28 08:43:00
4:53 AM,57.0,55.9,96,29.91,1.2,SSE,3.5,-,0.00,,Overcast,150,2013-05-28 08:53:00
5:27 AM,57.2,57.2,100,29.88,3.0,Variable,3.5,-,0.07,Rain,Rain,0,2013-05-28 09:27:00
5:53 AM,59.0,57.9,96,29.89,2.0,Calm,Calm,-,0.11,Rain,Rain,0,2013-05-28 09:53:00
6:06 AM,59.0,57.2,94,29.90,3.0,NNW,6.9,-,0.01,Rain-Thunderstorm,Light Thunderstorms and Rain,340,2013-05-28 10:06:00
6:53 AM,59.0,57.9,96,29.90,3.0,Calm,Calm,-,0.02,Rain-Thunderstorm,Light Rain,0,2013-05-28 10:53:00
7:08 AM,59.0,57.2,94,29.90,2.0,Calm,Calm,-,0.00,,Overcast,0,2013-05-28 11:08:00
7:53 AM,60.1,59.0,96,29.89,2.5,ESE,3.5,-,0.00,,Overcast,110,2013-05-28 11:53:00
8:53 AM,63.0,61.0,93,29.88,5.0,SSE,6.9,-,0.00,,Overcast,150,2013-05-28 12:53:00
9:53 AM,66.9,63.0,87,29.86,10.0,South,9.2,-,N/A,,Mostly Cloudy,180,2013-05-28 13:53:00
10:53 AM,70.0,64.0,81,29.85,10.0,South,13.8,-,N/A,,Overcast,190,2013-05-28 14:53:00
11:53 AM,75.0,66.9,76,29.83,10.0,SSW,13.8,23.0,N/A,,Mostly Cloudy,200,2013-05-28 15:53:00
12:53 PM,73.9,66.9,79,29.83,10.0,SSW,12.7,20.7,0.01,,Mostly Cloudy,200,2013-05-28 16:53:00
1:53 PM,75.9,64.9,69,29.85,10.0,SSW,15.0,24.2,N/A,,Mostly Cloudy,210,2013-05-28 17:53:00
2:53 PM,77.0,64.9,66,29.84,10.0,SSW,13.8,21.9,N/A,,Overcast,200,2013-05-28 18:53:00
3:53 PM,75.0,66.0,73,29.83,8.0,SW,13.8,-,0.00,Rain,Light Rain,220,2013-05-28 19:53:00
4:53 PM,75.9,68.0,76,29.83,10.0,SSW,10.4,-,0.00,,Overcast,210,2013-05-28 20:53:00
5:53 PM,78.1,68.0,71,29.81,10.0,SSW,15.0,21.9,N/A,,Mostly Cloudy,210,2013-05-28 21:53:00
6:53 PM,78.1,66.9,68,29.80,10.0,SSW,16.1,24.2,N/A,,Scattered Clouds,210,2013-05-28 22:53:00
7:53 PM,77.0,64.9,66,29.81,10.0,SW,13.8,-,N/A,,Mostly Cloudy,220,2013-05-28 23:53:00
8:53 PM,75.9,66.0,71,29.80,10.0,SW,12.7,-,N/A,,Overcast,220,2013-05-29 00:53:00
9:40 PM,73.4,66.2,78,29.81,9.0,North,-9999.0,-,0.01,Rain,Light Rain,0,2013-05-29 01:40:00
9:53 PM,73.9,66.9,79,29.79,10.0,SSW,9.2,-,0.01,,Overcast,210,2013-05-29 01:53:00
10:30 PM,73.4,68.0,83,29.81,10.0,SSW,9.2,-,0.00,Thunderstorm,Thunderstorm,200,2013-05-29 02:30:00
10:53 PM,73.9,68.0,82,29.80,10.0,SSW,20.7,25.3,0.01,Rain-Thunderstorm,Light Thunderstorms and Rain,210,2013-05-29 02:53:00
11:02 PM,71.6,69.8,94,29.80,1.8,SSW,11.5,26.5,0.22,Rain-Thunderstorm,Heavy Thunderstorms and Rain,210,2013-05-29 03:02:00
11:10 PM,71.6,69.8,94,29.80,3.0,SSE,9.2,16.1,0.25,Rain-Thunderstorm,Light Thunderstorms and Rain,160,2013-05-29 03:10:00
11:53 PM,72.0,69.1,91,29.83,8.0,WSW,11.5,-,0.26,Rain-Thunderstorm,Light Rain,240,2013-05-29 03:53:00